Location: Sinnemahoning State Park
(41.4031°N, 78.0230°W)
Time: 02:47:05
(UTC-05:00)

Daily predictions for brighter satellites

Satellite Brightness Start Highest point End
(mag) Time Altitude Azimuth Time Altitude Azimuth Time Altitude Azimuth
Cosmos 2237 Rocket 4.3 03:57:43 18° NNE 03:57:43 18° NNE 03:59:05 10° NNE
Atlas Centaur 2 3.8 04:16:10 36° S 04:16:22 36° S 04:23:49 10° ESE
Lacrosse 5 rocket 2.9 04:23:56 39° E 04:23:56 39° E 04:27:21 10° NE
SL-16 R/B 2.2 04:29:35 75° ENE 04:29:35 75° ENE 04:34:53 10° NNE
Cosmos 2123 Rocket 4.0 04:26:18 10° S 04:32:31 78° E 04:38:48 10° N
Cosmos 1725 Rocket 4.0 04:27:43 10° N 04:33:56 76° E 04:40:06 10° SSE
CZ-4B R/B 3.1 04:45:23 10° N 04:51:03 76° WNW 04:56:41 10° SSW
Meteor 1-26 Rocket 4.1 04:48:03 26° N 04:51:19 87° E 04:56:58 10° S
USA 229 DEB 3.7 04:49:12 39° NW 04:52:15 88° WSW 04:59:36 10° SSE
USA 229 3.7 04:49:15 38° NW 04:52:21 89° WSW 04:59:42 10° SSE
Cosmos 1503 Rocket 3.8 04:51:37 65° NNW 04:52:25 89° WSW 04:57:35 10° SSE
CZ-2C R/B 3.7 04:48:50 10° SSE 04:53:19 75° ENE 04:54:19 52° N
Cosmos 2369 Rocket 4.1 04:49:36 10° N 04:54:16 26° NE 04:58:53 10° ESE
Cosmos 2297 3.6 04:54:23 63° W 04:54:34 63° WSW 05:00:11 10° S
Cosmos 2016 Rocket 4.2 04:56:33 47° WSW 04:56:33 47° WSW 05:01:24 10° SSW
COSMO-SKYMED 1 3.9 04:51:48 10° SE 04:55:49 38° ENE 04:59:51 10° N
Cosmos 2084 Rocket 3.5 04:57:55 64° E 04:57:55 64° E 05:01:28 10° SE
Cosmos 1408 4.2 04:56:08 10° SSE 04:59:34 35° E 05:03:00 10° NNE
USA 116 4.5 04:56:20 10° SSE 05:01:36 84° ENE 05:07:00 10° N
IRS-1C Rocket 3.9 04:56:34 10° N 05:01:49 70° WNW 05:07:02 10° SSW
SJ-6F 4.4 04:58:22 10° N 05:07:04 - SSW 05:02:04 70° N
Meteor 2-12 Rocket 4.3 04:56:36 10° NNW 05:02:37 71° W 05:08:37 10° S
Cosmos 968 Rocket 4.4 04:59:38 12° N 05:04:22 48° ENE 05:09:26 10° SE
IDEFIX/ARIANE 42P 4.0 05:02:38 10° NNE 05:07:28 38° E 05:12:17 10° SSE
PSLV R/B 3.9 05:11:52 47° SE 05:11:52 47° SE 05:14:36 10° E
Cosmos 1862 Rocket 4.0 05:12:48 43° SW 05:12:48 43° SW 05:16:11 10° S
MTI 3.7 05:13:30 10° SSE 05:16:33 79° SE 05:16:33 79° SE
Meteor 1-28 Rocket 3.4 05:14:38 10° S 05:17:47 51° SW 05:17:47 51° SW
EO 1 Del DPAF 3.2 05:22:39 10° SSE 05:26:29 88° ENE 05:29:32 16° NNW
Landsat 4 3.8 05:25:13 10° S 05:28:48 47° W 05:28:54 47° W
Cosmos 1354 Rocket 4.4 05:28:31 33° WNW 05:29:58 40° WSW 05:34:50 10° S
Cosmos 1943 Rocket 3.7 05:27:44 10° N 05:32:52 33° ENE 05:37:57 10° ESE
Okean 1-7 3.4 05:28:44 10° N 05:33:06 67° E 05:37:27 10° SSE
USA 32 4.1 05:32:17 10° SSW 05:37:20 50° W 05:42:26 10° N
Hubble Space Telescope 3.2 05:36:12 10° SSW 05:38:14 13° S 05:40:16 10° SSE
Cosmos 2237 Rocket 4.0 05:39:35 14° NNW 05:39:35 14° NNW 05:41:25 10° NNW
Cosmos 1943 4.0 05:32:51 10° S 05:38:22 54° ESE 05:43:54 10° NNE
SKYMED 2 3.5 05:39:29 10° S 05:43:47 62° W 05:48:06 10° NNW
Cosmos 2233 Rocket 4.1 05:38:31 10° NNW 05:44:23 48° W 05:50:13 10° SSW
ATLAS 5 CENTAUR R/B 2.5 05:43:21 10° SSW 05:47:47 55° ESE 05:52:36 10° NE
Abrixas rocket 3.8 05:49:49 19° NNW 05:50:56 23° N 05:53:35 10° ENE
Cosmos 1825 2.2 05:47:16 10° SSW 05:50:56 51° W 05:54:39 10° N
DMSP B5D1-3 4.5 05:46:44 10° SSE 05:51:51 85° WSW 05:57:02 10° NNW
DELTA 2 R/B (1) 4.0 05:48:34 21° W 05:52:11 54° SSW 05:57:36 10° ESE
BREEZE-M DEB (TANK) 3.5 05:50:45 22° WNW 05:52:46 46° N 05:56:41 10° E
Meteor 1-27 Rocket 4.1 05:49:51 10° N 05:55:43 69° ENE 06:01:25 10° SSE
Cosmos 2221 Rocket 3.5 05:54:38 10° NNW 05:59:05 70° W 06:03:33 10° S
Intercosmos 25 3.5 05:56:50 10° NNW 06:00:02 46° W 06:04:16 10° S
Meteor 2-3 Rocket 4.5 05:55:23 10° SW 06:00:21 30° WNW 06:05:19 10° N
Okean-O 3.0 05:56:51 10° N 06:01:01 40° WNW 06:05:10 10° SW
Lacrosse 5 rocket 2.4 05:59:41 19° W 06:02:19 32° NNW 06:06:30 10° NNE
Meteor 1-10 Rocket 4.4 05:57:19 10° NNW 06:03:11 63° W 06:09:01 10° S
SJ-12 4.1 06:00:50 10° NNE 06:04:58 76° ESE 06:09:03 10° S
Atlas Centaur 2 4.5 05:59:01 10° WSW 06:05:19 25° SSW 06:11:55 10° SSE
Cosmos 1484 Rocket 4.2 06:04:47 10° NNE 06:08:39 44° E 06:12:29 10° S
Cosmos 1703 Rocket 4.3 06:07:11 10° NNW 06:11:02 31° W 06:14:51 10° SSW
Cosmos 1513 Rocket 4.4 06:05:58 10° N 06:12:04 79° W 06:18:06 10° S
Cosmos 1441 Rocket 3.1 06:09:02 10° NNW 06:12:47 65° W 06:16:29 10° S
Cosmos 1606 3.6 06:10:23 10° NNW 06:13:40 28° W 06:16:56 10° SSW
SL-16 R/B 3.6 06:11:34 14° WNW 06:14:00 17° NW 06:17:41 10° N
Cosmos 1869 Rocket 4.1 06:12:10 10° SW 06:16:12 36° WNW 06:20:17 10° N
COSMOS 2441 4.3 06:12:40 10° N 06:17:36 81° WNW 06:22:29 10° SSW
Cosmos 1603 4.1 06:13:07 10° SW 06:18:23 39° WNW 06:23:43 10° N
Cosmos 1777 Rocket 4.0 06:13:36 10° NNW 06:18:50 86° WSW 06:24:02 10° SSE
NOSS 3-1 (C) 4.4 06:14:40 10° NW 06:22:05 50° WSW 06:30:09 10° S
SMAP 3.8 06:19:06 10° NNE 06:23:42 59° E 06:28:16 10° S
Cosmos 1891 Rocket 4.4 06:18:09 10° NNW 06:24:06 64° W 06:30:08 10° S
Cosmos 1782 4.0 06:22:34 10° NW 06:25:40 22° W 06:28:45 10° SW
CZ-2C R/B 2.8 06:25:35 10° N 06:30:32 46° WNW 06:35:22 10° SW
COSMO-SKYMED 1 4.0 06:29:03 10° SW 06:32:06 19° W 06:35:11 10° NW
ATLAS 2AS CENTAUR R/B 4.1 06:25:36 10° NNW 06:33:04 40° NE 06:40:03 10° ESE
Cosmos 1408 4.3 06:32:47 10° WSW 06:34:49 14° WNW 06:36:53 10° NW
AQUARIUS 4.4 06:31:44 10° NNE 06:36:15 79° ESE 06:40:44 10° S
Cosmos 2369 Rocket 2.5 06:33:10 10° NW 06:38:30 47° WSW 06:43:49 10° S
Ariane Rocket 3.1 06:34:45 10° NNE 06:39:51 86° ESE 06:44:54 10° SSW
